Home   Weather   Khabarovsk   Past weeks

Flag for Russia Past Weather in Khabarovsk, Russia — Yesterday and Last 2 Weeks

Now
66 °F

Passing clouds.


Feels Like: 66 °F
Forecast: 58 / 75 °F
Wind: 3 mph from East

Location: Habarovsk

Current Time: Jul 22, 2017 at 8:51:15 am

Latest Report: Jul 22, 2017 at 8:30 am


Visibility: N/A

Pressure: 29.86 "Hg

Humidity: 83%

Dew Point: 61 °F

Location of KhabarovskLocation

Past Weather in Khabarovsk — Graph

°F

Khabarovsk Temperature Yesterday

Maximum temperature yesterday: 81 °F (at 1:30 pm)
Minimum temperature yesterday: 59 °F (at 5:30 am)
Average temperature yesterday: 70 °F

High & Low Weather Summary for the Past Weeks

 TemperatureHumidityPressure
High93 °F (Jul 7, 2:00 pm)100% (Jul 9, 3:30 am)29.86 "Hg (Jul 9, 3:30 am)
Low57 °F (Jul 22, 4:30 am)26% (Jul 8, 1:00 pm)29.33 "Hg (Jul 13, 5:00 pm)
Average74 °F76%29.59 "Hg
* Reported Jul 7 7:00 am — Jul 22 7:30 am, Khabarovsk. Weather by CustomWeather, © 2017

Note: Actual official high and low records may vary slightly from our data, if they occured in-between our weather recording intervals... More about our weather records

Advertising

Khabarovsk Weather History for the Previous 24 Hours

Scroll right to see more
 ConditionsComfort  
Time TempWeatherWind HumidityBarometerVisibility
7:30 am
Sat, Jul 22
64 °FSunny.1 mph88%29.86 "Hg10 mi
6:30 am61 °FSunny.No wind94%29.86 "Hg10 mi
6:00 am59 °FFog.1 mph94%29.86 "HgN/A
5:30 am59 °FFog.No wind94%29.83 "HgN/A
5:00 am57 °FFog.3 mph94%29.83 "HgN/A
4:30 am57 °FFog.3 mph94%29.83 "HgN/A
3:30 am59 °FFog.1 mph94%29.80 "HgN/A
3:00 am59 °FFog.3 mph94%29.80 "HgN/A
2:30 am59 °FClear.3 mph94%29.80 "Hg10 mi
2:00 am61 °FClear.3 mph88%29.77 "Hg10 mi
1:30 am61 °FClear.6 mph94%29.77 "Hg10 mi
1:00 am63 °FClear.6 mph83%29.77 "Hg10 mi
12:30 am63 °FClear.6 mph83%29.77 "Hg10 mi
12:00 am63 °FClear.6 mph83%29.74 "Hg10 mi
11:30 pm
Fri, Jul 21
63 °FClear.6 mph83%29.74 "Hg10 mi
11:00 pm64 °FClear.8 mph83%29.74 "Hg10 mi
10:30 pm64 °FClear.8 mph83%29.74 "Hg10 mi
10:00 pm66 °FClear.3 mph73%29.71 "Hg10 mi
9:30 pm68 °FClear.3 mph69%29.71 "Hg10 mi
9:00 pm70 °FClear.6 mph60%29.71 "Hg10 mi
8:30 pm72 °FPassing clouds.8 mph53%29.68 "HgN/A
8:00 pm73 °FPassing clouds.6 mph50%29.68 "HgN/A
7:30 pm75 °FPassing clouds.8 mph44%29.68 "HgN/A
7:00 pm75 °FPassing clouds.10 mph41%29.65 "HgN/A
6:30 pm79 °FPassing clouds.15 mph37%29.65 "HgN/A
6:00 pm77 °FPassing clouds.13 mph44%29.65 "HgN/A
5:30 pm77 °FPassing clouds.10 mph47%29.65 "HgN/A
5:00 pm77 °FPassing clouds.13 mph44%29.62 "HgN/A
4:30 pm79 °FPassing clouds.15 mph37%29.62 "HgN/A
4:00 pm79 °FPassing clouds.15 mph34%29.62 "HgN/A
3:30 pm81 °FPassing clouds.15 mph32%29.62 "HgN/A
3:00 pm81 °FPassing clouds.13 mph32%29.62 "HgN/A
2:30 pm81 °FPassing clouds.13 mph30%29.62 "HgN/A
2:00 pm81 °FPassing clouds.13 mph37%29.62 "HgN/A
1:30 pm81 °FPassing clouds.15 mph34%29.62 "HgN/A
1:00 pm79 °FPassing clouds.10 mph45%29.62 "HgN/A
12:30 pm79 °FPassing clouds.10 mph42%29.62 "HgN/A
12:00 pm79 °FPassing clouds.8 mph39%29.62 "HgN/A
11:30 am77 °FPassing clouds.6 mph39%29.62 "HgN/A
11:00 am77 °FPassing clouds.6 mph51%29.62 "HgN/A
10:30 am75 °FPassing clouds.6 mph54%29.62 "HgN/A
10:00 am73 °FPassing clouds.3 mph61%29.62 "HgN/A
9:30 am73 °FSunny.3 mph61%29.59 "Hg10 mi
9:00 am70 °FPassing clouds.3 mph69%29.59 "HgN/A
8:30 am68 °FPassing clouds.3 mph78%29.59 "HgN/A
8:00 am66 °FSunny.3 mph83%29.59 "Hg10 mi
Weather by CustomWeather, © 2017

See weather overviewHow to use our weather pages